Location: Arnouville
(48.9833°N, 2.4167°E)
Time: 13:39:22
(UTC+00:00)

Daily predictions for brighter satellites

Satellite Brightness Start Highest point End
(mag) Time Altitude Azimuth Time Altitude Azimuth Time Altitude Azimuth
ALOS 2.7 16:24:05 10° S 16:28:45 71° WSW 16:33:26 10° NNW
Cosmos 1733 Rocket 3.2 16:25:08 10° N 16:29:25 50° ENE 16:33:43 10° SSE
Meteor 1-28 Rocket 4.0 16:26:42 10° N 16:30:23 53° WNW 16:34:03 10° SSW
RESURS DK-1 2.4 16:26:33 10° SSW 16:30:39 70° ESE 16:34:47 10° NE
Cosmos 1269 Rocket 4.5 16:25:29 10° SSW 16:30:45 66° WNW 16:36:04 10° NNE
Cosmos 304 Rocket 4.4 16:26:05 10° NNW 16:30:51 64° WSW 16:35:35 10° S
COSMOS 2428 2.8 16:27:48 10° SSW 16:33:29 82° ESE 16:39:13 10° NNE
Cosmos 1900 4.3 16:29:29 10° NNW 16:34:22 63° NE 16:39:12 10° SE
FENGYUN 3A 4.2 16:30:20 10° S 16:35:43 65° WSW 16:41:08 10° NNW
Genesis I 3.9 16:33:47 10° NNW 16:37:21 32° NE 16:40:51 10° ESE
Meteor 1-5 Rocket 4.1 16:32:42 10° N 16:38:16 73° ENE 16:43:38 10° SSE
ISS -2.1 16:36:26 10° W 16:39:33 37° SSW 16:42:41 10° SE
USA 215 3.4 16:34:04 10° ENE 16:40:37 72° SE 16:47:08 10° SW
Cosmos 292 Rocket 4.2 16:36:47 10° N 16:41:23 39° ENE 16:45:56 10° SE
Feng Yun 1-1 Rocket 4.3 16:37:55 10° SE 16:43:09 55° ENE 16:48:26 10° N
Cosmos 1666 3.6 16:41:10 10° NNE 16:44:22 26° ENE 16:47:31 10° SE
Cosmos 1536 3.2 16:42:42 10° N 16:46:33 41° ENE 16:50:20 10° SSE
Cosmos 921 Rocket 4.1 16:43:20 10° N 16:46:48 23° ENE 16:50:17 10° ESE
CZ-4B R/B 3.8 16:42:58 10° S 16:48:15 62° WSW 16:53:39 10° NNW
STARLINK-60 4.3 16:48:17 10° SSW 16:51:15 29° SE 16:53:48 13° E
NOSS 0 Rocket 4.1 16:45:33 10° SSW 16:51:39 61° ESE 16:57:49 10° NE
NOAA 12 4.4 16:51:43 10° SE 16:56:45 46° ENE 17:01:47 10° N
Cosmos 2278 Rocket 2.4 16:51:20 10° NNW 16:57:00 77° WSW 17:02:39 10° SSE
BREEZE-M R/B 3.2 16:50:39 10° W 16:57:20 81° N 17:00:16 14° E
Lacrosse 5 rocket 1.4 16:53:09 10° SW 16:57:28 86° NW 17:00:53 14° NE
Cosmos 2251 Rocket 3.5 16:53:22 10° SSW 16:58:38 69° ESE 17:03:53 10° NNE
COBE Rocket 4.0 16:55:15 10° NNE 16:59:45 47° E 17:04:17 10° S
Cosmos 2360 Rocket 3.8 16:55:56 10° WSW 17:00:50 29° NW 17:05:45 10° NNE
Cosmos 1782 Rocket 4.4 16:57:37 10° NNE 17:01:20 27° ENE 17:05:01 10° SE
SL-4 R/B 1.9 17:00:35 10° W 17:04:17 66° NNW 17:07:13 17° ENE
Envisat 3.2 17:02:23 10° SE 17:07:13 46° ENE 17:12:05 10° N
Aureole 1 Rocket 3.4 17:05:07 10° SSE 17:07:38 25° ESE 17:08:48 20° ENE
CZ-4B R/B 3.8 17:04:57 10° NNW 17:07:49 23° WNW 17:10:37 10° WSW
Cosmos 2369 Rocket 3.4 17:04:32 10° N 17:08:46 21° NE 17:11:13 16° ENE
Cosmos 1862 Rocket 3.5 17:06:42 10° S 17:11:04 85° E 17:15:30 10° N
Cosmos 1689 Rocket 4.2 17:10:13 10° N 17:12:52 27° WNW 17:15:30 10° SW
CZ-4 R/B 2.3 17:09:42 10° ESE 17:12:53 25° ENE 17:16:03 10° N
Cosmos 1743 3.7 17:09:46 10° NNE 17:13:00 25° ENE 17:16:13 10° SE
Cosmos 1703 Rocket 4.2 17:10:22 10° SSE 17:14:26 36° E 17:18:22 11° NNE
STARLINK-67 3.6 17:11:54 10° WNW 17:14:27 33° N 17:15:28 24° NE
SL-16 R/B 3.1 17:09:41 10° SSE 17:14:31 30° ESE 17:17:46 18° ENE
USA 267 3.6 17:09:29 10° SE 17:16:00 70° SW 17:22:34 10° WNW
Cosmos 407 Rocket 4.5 17:11:45 10° SSE 17:16:02 27° E 17:18:34 19° ENE
Cosmos 1992 Rocket 4.4 17:11:56 10° NNW 17:17:08 67° WSW 17:22:18 10° S
USA 229 DEB 4.5 17:13:59 10° NW 17:20:24 35° NNE 17:24:57 19° E
USA 229 4.5 17:14:06 10° NW 17:20:30 35° NNE 17:25:01 19° E
YAOGAN 6 3.1 17:17:28 10° SE 17:20:42 34° ENE 17:23:59 10° N
Okean O Rocket 3.8 17:17:04 10° SSW 17:20:49 28° W 17:24:36 10° NW
Cosmos 2237 Rocket 2.2 17:18:21 10° SSW 17:24:03 83° ESE 17:29:19 12° NNE
NOSS 3-4 (A) 4.4 17:18:46 10° WSW 17:24:30 40° NNW 17:29:58 13° NE
NOSS 3-4 (C) 4.4 17:18:52 10° WSW 17:24:37 40° NNW 17:30:04 13° NE
Cosmos 2333 Rocket 3.2 17:19:37 10° SW 17:25:08 45° NW 17:30:41 10° NNE
BREEZE-M DEB (TANK) 2.9 17:19:45 10° WNW 17:25:23 53° SSW 17:27:32 14° SE
Cosmos 1812 3.3 17:22:34 10° SSW 17:26:23 59° WNW 17:30:14 10° N
CORIOLIS 4.3 17:21:51 10° SSE 17:27:19 82° WSW 17:32:48 10° NNW
Shenzhou-11 Module 4.4 17:25:52 10° WSW 17:27:46 17° SSW 17:29:37 10° SSE
STARLINK-46 3.2 17:25:25 10° W 17:27:58 40° NNW 17:28:33 34° NNE
Cosmos 1092 Rocket 4.0 17:21:51 10° S 17:28:03 64° E 17:34:15 10° NNE
Cosmos 2242 Rocket 3.6 17:23:31 10° S 17:28:05 81° E 17:32:42 10° NNE
Cosmos 2322 Rocket 4.5 17:26:11 10° WNW 17:29:07 14° NNW 17:32:03 10° N
PSLV R/B 4.5 17:25:11 10° N 17:29:17 59° WNW 17:33:20 10° SSW
Cosmos 2219 Rocket 3.4 17:30:12 10° WSW 17:35:26 39° NW 17:40:44 10° NNE
Cosmos 1867 3.7 17:31:39 10° NNW 17:37:01 53° NE 17:41:04 17° ESE
Cosmos 1975 4.3 17:34:43 10° N 17:43:59 - SE 17:36:24 20° NNE
BREEZE-M DEB (TANK) 2.7 17:35:22 10° W 17:40:03 53° S 17:41:21 28° ESE
Okean-O 2.6 17:36:10 10° SSE 17:40:36 84° WSW 17:45:03 10° NNW
Cosmos 1943 Rocket 2.7 17:38:07 10° NNW 17:43:20 36° NE 17:45:19 28° E
Cosmos 1908 Rocket 3.8 17:40:13 10° NNW 17:44:37 70° W 17:48:56 10° S
FALCON 9 DEB 3.3 17:42:26 10° SW 17:45:51 57° SSE 17:46:30 47° ESE
COSMO-SKYMED 1 2.6 17:47:53 28° NE 17:49:56 54° E 17:54:11 10° S
Ariane Rocket 4.2 17:52:12 23° NNE 17:52:12 23° NNE 17:54:47 10° N
CSL-04 Rocket 3.6 17:50:01 10° SSE 17:55:11 58° ENE 18:00:25 10° N
Cosmos 1980 4.2 17:49:56 10° SW 17:55:29 58° WNW 18:00:05 15° NNE
YAOGAN 1 2.5 17:53:12 10° SSE 17:57:26 58° ENE 18:01:42 10° N
Okean 1-7 2.9 17:53:08 10° S 17:57:28 81° E 18:00:20 21° NNE
Cosmos 1441 Rocket 3.4 17:54:01 10° NNW 17:57:50 68° W 18:01:34 10° S
SeaSat 1 3.9 17:59:06 20° NNE 17:59:06 20° NNE 18:01:40 10° N
S3M 4.1 17:52:59 10° N 17:58:59 47° ENE 18:04:53 10° SSE
Uosat 12 SS-18 rocket 4.4 17:54:10 10° NNW 17:59:00 45° NE 17:59:27 43° ENE
Cosmos 2297 3.9 17:56:28 10° NNW 18:02:11 75° WSW 18:07:49 10° SSE
ATLAS 2AS CENTAUR R/B 4.2 17:56:01 10° W 18:03:10 33° NNW 18:07:59 18° NNE
CZ-4 R/B 4.4 17:59:05 10° SSE 18:03:15 90° WSW 18:07:28 10° NNW
Cosmos 1428 Rocket 4.4 18:01:08 10° S 18:07:19 79° E 18:13:35 10° NNE
Cosmos 1190 Rocket 3.9 18:05:05 10° S 18:10:12 64° ESE 18:11:38 45° NE
Cosmos 1553 Rocket 3.9 18:05:09 10° N 18:11:32 74° E 18:17:57 10° SSE
STARLINK-52 3.4 18:08:40 10° SW 18:11:47 63° SSW 18:11:47 63° SSW
Cosmos 676 Rocket 4.5 18:07:35 10° S 18:11:48 40° ESE 18:11:48 40° ESE
CSL-04 Debris 4.0 18:07:29 10° SSE 18:12:57 81° ENE 18:18:24 10° NNW
SKYMED 3 4.5 18:12:19 35° NNE 18:14:07 87° WNW 18:18:28 10° SSW
STARLINK-29 3.7 18:16:48 10° WSW 18:19:41 57° WSW 18:19:41 57° WSW
Cosmos 1954 Rocket 4.5 18:15:46 10° S 18:19:42 41° SE 18:19:42 41° SE
USA 215 3.6 18:20:48 34° NE 18:23:33 56° NNW 18:29:54 10° W
Meteor 1-18 Rocket 4.1 18:18:24 10° S 18:24:07 86° E 18:27:36 25° NNE
Cosmos 921 Rocket 4.2 18:21:13 10° NNW 18:25:16 43° WSW 18:29:22 10° S
Cosmos 489 Rocket 4.4 18:19:16 10° NNW 18:25:41 90° WSW 18:32:04 10° SSE
Cosmos 2026 Rocket 4.1 18:20:14 10° SSW 18:26:16 70° WNW 18:32:21 10° N
STARLINK-60 4.3 18:24:26 10° WSW 18:26:47 40° W 18:26:47 40° W
Meteor 2-9 Rocket 4.2 18:24:53 10° N 18:30:49 86° ENE 18:36:37 10° SSE
Cosmos 614 Rocket 4.0 18:26:52 10° SSW 18:31:57 73° WNW 18:33:24 47° N
Lacrosse 5 4.0 18:31:00 10° S 18:31:51 13° SSE 18:31:51 13° SSE
Cosmos 1174 4.2 18:31:18 10° SW 18:35:57 67° WNW 18:35:57 67° WNW
NOAA 11 4.1 18:31:16 10° SSE 18:36:44 85° WSW 18:42:16 10° NNW
Lacrosse 5 rocket 2.8 18:33:20 10° WNW 18:36:32 29° NNW 18:36:32 29° NNW
SKYMED 2 4.3 18:36:33 34° NNW 18:38:03 51° WNW 18:42:15 10° SW
SL-4 R/B 3.2 18:40:19 10° WNW 18:42:49 37° WNW 18:42:49 37° WNW
Okean 2 Rocket 3.7 18:40:56 10° NNW 18:50:22 - S 18:44:32 52° NW
Okean 1 4.4 18:41:43 10° SSW 18:45:30 44° WNW 18:45:30 44° WNW
Cosmos 2221 Rocket 4.4 18:42:31 10° SSW 18:45:40 45° SSW 18:45:40 45° SSW
CZ-4 R/B 3.0 18:44:19 10° SSW 18:47:49 32° W 18:51:19 10° NNW
Cosmos 1140 Rocket 3.5 18:46:26 10° SSW 18:51:25 74° W 18:51:25 74° W
Cosmos 2369 Rocket 2.2 18:47:57 10° NNW 18:53:04 74° NNW 18:53:04 74° NNW
Cosmos 407 Rocket 4.3 18:52:43 10° SW 18:57:45 49° WNW 18:58:49 43° NNW
SL-16 R/B 2.8 18:52:48 10° SW 18:58:22 53° NW 18:59:41 44° NNW
NOSS 3-1 (C) 3.9 18:55:39 10° NW 19:03:01 79° NE 19:03:58 70° ESE
Cosmos 1655 Rocket 4.1 18:58:44 10° SSW 19:05:03 73° W 19:07:35 38° N
Cosmos 2237 Rocket 4.1 19:04:19 10° W 19:08:49 23° NW 19:11:10 18° N
USA 229 DEB 3.7 19:05:01 10° NW 19:12:16 87° NE 19:12:26 86° E
USA 229 3.7 19:05:08 10° NW 19:12:22 87° NE 19:12:30 86° E
NOSS 3-1 (A) 4.0 19:10:23 10° NW 19:17:06 68° NNE 19:17:06 68° NNE
Cosmos 1943 Rocket 3.1 19:21:51 10° NW 19:26:54 45° W 19:26:54 45° W
Cosmos 2344 4.3 19:19:05 10° NW 19:28:36 87° NE 19:31:31 59° SE
ATLAS 2AS CENTAUR R/B 4.4 19:49:53 10° NW 19:55:26 27° N 19:55:26 27° N
